<?xml version='1.0' encoding='UTF-8'?>
<gpx xmlns="http://www.topografix.com/GPX/1/1" creator="www.balnam.be" version="1.1" xmlns:xsi="http://www.w3.org/2001/XMLSchema-instance" xsi:schemaLocation="http://www.topografix.com/GPX/1/1 http://www.topografix.com/GPX/1/1/gpx.xsd">
<trk>
<name>hhshs1</name>
<cmt>s</cmt>
<desc>Hensies Chemin n°1 </desc>
<link href="https://chemins.be/hensies/chemin/1"/><trkseg>
<trkpt lat="50.452844" lon="3.699139"><time>2026-05-02T21:52:10Z</time></trkpt>
<trkpt lat="50.451997" lon="3.698791"><time>2026-05-02T22:02:10Z</time></trkpt>
</trkseg></trk>
<trk>
<name>hhshs1</name>
<cmt>d</cmt>
<desc>Hensies Chemin n°1 </desc>
<link href="https://chemins.be/hensies/chemin/1"/><trkseg>
<trkpt lat="50.451997" lon="3.698791"><time>2026-05-02T22:02:10Z</time></trkpt>
<trkpt lat="50.451287" lon="3.698499"><time>2026-05-02T22:12:10Z</time></trkpt>
</trkseg></trk>
<trk>
<name>hhshs1</name>
<cmt>r</cmt>
<desc>Hensies Chemin n°1 </desc>
<link href="https://chemins.be/hensies/chemin/1"/><trkseg>
<trkpt lat="50.451287" lon="3.698499"><time>2026-05-02T22:12:10Z</time></trkpt>
<trkpt lat="50.447351" lon="3.696971"><time>2026-05-02T22:22:10Z</time></trkpt>
</trkseg>
</trk>
<trk>
<name>hhshs10</name>
<cmt>v</cmt>
<desc>Hensies Chemin n°10 </desc>
<link href="https://chemins.be/hensies/chemin/10"/><trkseg>
<trkpt lat="50.442152" lon="3.694982"><time>2026-05-02T21:52:10Z</time></trkpt>
<trkpt lat="50.441473" lon="3.697156"><time>2026-05-02T22:02:10Z</time></trkpt>
</trkseg>
</trk>
<trk>
<name>hhshs11</name>
<cmt>v</cmt>
<desc>Hensies Sentier n°11 Rue Nouvelle Cité</desc>
<link href="https://chemins.be/hensies/sentier/11"/><trkseg>
<trkpt lat="50.430898" lon="3.683284"><time>2026-05-02T21:52:10Z</time></trkpt>
<trkpt lat="50.430287" lon="3.684600"><time>2026-05-02T22:02:10Z</time></trkpt>
</trkseg></trk>
<trk>
<name>hhshs11</name>
<cmt>s</cmt>
<desc>Hensies Sentier n°11 Rue Nouvelle Cité</desc>
<link href="https://chemins.be/hensies/sentier/11"/><trkseg>
<trkpt lat="50.430287" lon="3.684600"><time>2026-05-02T22:02:10Z</time></trkpt>
<trkpt lat="50.429086" lon="3.684890"><time>2026-05-02T22:12:10Z</time></trkpt>
</trkseg></trk>
<trk>
<name>hhshs11</name>
<cmt>r</cmt>
<desc>Hensies Sentier n°11 Rue Nouvelle Cité</desc>
<link href="https://chemins.be/hensies/sentier/11"/><trkseg>
<trkpt lat="50.429086" lon="3.684890"><time>2026-05-02T22:12:10Z</time></trkpt>
<trkpt lat="50.428391" lon="3.685053"><time>2026-05-02T22:22:10Z</time></trkpt>
<trkpt lat="50.427858" lon="3.684775"><time>2026-05-02T22:32:10Z</time></trkpt>
</trkseg></trk>
<trk>
<name>hhshs11</name>
<cmt>q</cmt>
<desc>Hensies Sentier n°11 Rue Nouvelle Cité</desc>
<link href="https://chemins.be/hensies/sentier/11"/><trkseg>
<trkpt lat="50.427858" lon="3.684775"><time>2026-05-02T22:32:10Z</time></trkpt>
<trkpt lat="50.427174" lon="3.685096"><time>2026-05-02T22:42:10Z</time></trkpt>
<trkpt lat="50.423342" lon="3.685196"><time>2026-05-02T22:52:10Z</time></trkpt>
<trkpt lat="50.420989" lon="3.685326"><time>2026-05-02T23:02:10Z</time></trkpt>
</trkseg>
</trk>
<trk>
<name>hhshs12</name>
<cmt>q</cmt>
<desc>Hensies Sentier n°12 </desc>
<link href="https://chemins.be/hensies/sentier/12"/><trkseg>
<trkpt lat="50.443881" lon="3.689306"><time>2026-05-02T21:52:10Z</time></trkpt>
<trkpt lat="50.444305" lon="3.690300"><time>2026-05-02T22:02:10Z</time></trkpt>
<trkpt lat="50.445388" lon="3.690768"><time>2026-05-02T22:12:10Z</time></trkpt>
</trkseg></trk>
<trk>
<name>hhshs12</name>
<cmt>s</cmt>
<desc>Hensies Sentier n°12 </desc>
<link href="https://chemins.be/hensies/sentier/12"/><trkseg>
<trkpt lat="50.445388" lon="3.690768"><time>2026-05-02T22:12:10Z</time></trkpt>
<trkpt lat="50.446254" lon="3.691133"><time>2026-05-02T22:22:10Z</time></trkpt>
</trkseg></trk>
<trk>
<name>hhshs12</name>
<cmt>q</cmt>
<desc>Hensies Sentier n°12 </desc>
<link href="https://chemins.be/hensies/sentier/12"/><trkseg>
<trkpt lat="50.446254" lon="3.691133"><time>2026-05-02T22:22:10Z</time></trkpt>
<trkpt lat="50.447155" lon="3.691447"><time>2026-05-02T22:32:10Z</time></trkpt>
<trkpt lat="50.449124" lon="3.693891"><time>2026-05-02T22:42:10Z</time></trkpt>
</trkseg></trk>
<trk>
<name>hhshs12</name>
<cmt>s</cmt>
<desc>Hensies Sentier n°12 </desc>
<link href="https://chemins.be/hensies/sentier/12"/><trkseg>
<trkpt lat="50.449124" lon="3.693891"><time>2026-05-02T22:42:10Z</time></trkpt>
<trkpt lat="50.449560" lon="3.694409"><time>2026-05-02T22:52:10Z</time></trkpt>
</trkseg></trk>
<trk>
<name>hhshs12</name>
<cmt>q</cmt>
<desc>Hensies Sentier n°12 </desc>
<link href="https://chemins.be/hensies/sentier/12"/><trkseg>
<trkpt lat="50.449560" lon="3.694409"><time>2026-05-02T22:52:10Z</time></trkpt>
<trkpt lat="50.450585" lon="3.695347"><time>2026-05-02T23:02:10Z</time></trkpt>
</trkseg>
</trk>
<trk>
<name>hhshs13</name>
<cmt>q</cmt>
<desc>Hensies Sentier n°13 </desc>
<link href="https://chemins.be/hensies/sentier/13"/><trkseg>
<trkpt lat="50.430390" lon="3.688556"><time>2026-05-02T21:52:10Z</time></trkpt>
<trkpt lat="50.430154" lon="3.691074"><time>2026-05-02T22:02:10Z</time></trkpt>
<trkpt lat="50.428389" lon="3.694054"><time>2026-05-02T22:12:10Z</time></trkpt>
</trkseg>
</trk>
<trk>
<name>hhshs14</name>
<cmt>q</cmt>
<desc>Hensies Sentier n°14 </desc>
<link href="https://chemins.be/hensies/sentier/14"/><trkseg>
<trkpt lat="50.430208" lon="3.691102"><time>2026-05-02T21:52:10Z</time></trkpt>
<trkpt lat="50.430418" lon="3.692647"><time>2026-05-02T22:02:10Z</time></trkpt>
<trkpt lat="50.428942" lon="3.696839"><time>2026-05-02T22:12:10Z</time></trkpt>
</trkseg>
</trk>
<trk>
<name>hhshs15</name>
<cmt>v</cmt>
<desc>Hensies Sentier n°15 </desc>
<link href="https://chemins.be/hensies/sentier/15"/><trkseg>
<trkpt lat="50.434414" lon="3.683465"><time>2026-05-02T21:52:10Z</time></trkpt>
<trkpt lat="50.434444" lon="3.683901"><time>2026-05-02T22:02:10Z</time></trkpt>
<trkpt lat="50.434472" lon="3.684951"><time>2026-05-02T22:12:10Z</time></trkpt>
</trkseg></trk>
<trk>
<name>hhshs15</name>
<cmt>q</cmt>
<desc>Hensies Sentier n°15 </desc>
<link href="https://chemins.be/hensies/sentier/15"/><trkseg>
<trkpt lat="50.434472" lon="3.684951"><time>2026-05-02T22:12:10Z</time></trkpt>
<trkpt lat="50.434709" lon="3.685838"><time>2026-05-02T22:22:10Z</time></trkpt>
<trkpt lat="50.435153" lon="3.686266"><time>2026-05-02T22:32:10Z</time></trkpt>
</trkseg></trk>
<trk>
<name>hhshs15</name>
<cmt>r</cmt>
<desc>Hensies Sentier n°15 </desc>
<link href="https://chemins.be/hensies/sentier/15"/><trkseg>
<trkpt lat="50.435153" lon="3.686266"><time>2026-05-02T22:32:10Z</time></trkpt>
<trkpt lat="50.436376" lon="3.687575"><time>2026-05-02T22:42:10Z</time></trkpt>
</trkseg></trk>
<trk>
<name>hhshs15</name>
<cmt>v</cmt>
<desc>Hensies Sentier n°15 </desc>
<link href="https://chemins.be/hensies/sentier/15"/><trkseg>
<trkpt lat="50.436376" lon="3.687575"><time>2026-05-02T22:42:10Z</time></trkpt>
<trkpt lat="50.436731" lon="3.687767"><time>2026-05-02T22:52:10Z</time></trkpt>
<trkpt lat="50.436876" lon="3.687887"><time>2026-05-02T23:02:10Z</time></trkpt>
<trkpt lat="50.437187" lon="3.688098"><time>2026-05-02T23:12:10Z</time></trkpt>
<trkpt lat="50.437972" lon="3.690968"><time>2026-05-02T23:22:10Z</time></trkpt>
</trkseg>
</trk>
<trk>
<name>hhshs16</name>
<cmt>v</cmt>
<desc>Hensies Sentier n°16 </desc>
<link href="https://chemins.be/hensies/sentier/16"/><trkseg>
<trkpt lat="50.436902" lon="3.683007"><time>2026-05-02T21:52:10Z</time></trkpt>
<trkpt lat="50.436215" lon="3.685495"><time>2026-05-02T22:02:10Z</time></trkpt>
<trkpt lat="50.436414" lon="3.685717"><time>2026-05-02T22:12:10Z</time></trkpt>
<trkpt lat="50.435756" lon="3.686853"><time>2026-05-02T22:22:10Z</time></trkpt>
</trkseg></trk>
<trk>
<name>hhshs16</name>
<cmt>q</cmt>
<desc>Hensies Sentier n°16 </desc>
<link href="https://chemins.be/hensies/sentier/16"/><trkseg>
<trkpt lat="50.435756" lon="3.686853"><time>2026-05-02T22:22:10Z</time></trkpt>
<trkpt lat="50.435482" lon="3.687617"><time>2026-05-02T22:32:10Z</time></trkpt>
</trkseg>
</trk>
<trk>
<name>hhshs17</name>
<cmt>v</cmt>
<desc>Hensies Sentier n°17 </desc>
<link href="https://chemins.be/hensies/sentier/17"/><trkseg>
<trkpt lat="50.437146" lon="3.692003"><time>2026-05-02T21:52:10Z</time></trkpt>
<trkpt lat="50.437051" lon="3.693283"><time>2026-05-02T22:02:10Z</time></trkpt>
<trkpt lat="50.437376" lon="3.694148"><time>2026-05-02T22:12:10Z</time></trkpt>
<trkpt lat="50.437725" lon="3.694295"><time>2026-05-02T22:22:10Z</time></trkpt>
</trkseg></trk>
<trk>
<name>hhshs17</name>
<cmt>q</cmt>
<desc>Hensies Sentier n°17 </desc>
<link href="https://chemins.be/hensies/sentier/17"/><trkseg>
<trkpt lat="50.437725" lon="3.694295"><time>2026-05-02T22:22:10Z</time></trkpt>
<trkpt lat="50.437703" lon="3.695531"><time>2026-05-02T22:32:10Z</time></trkpt>
<trkpt lat="50.437526" lon="3.696719"><time>2026-05-02T22:42:10Z</time></trkpt>
<trkpt lat="50.438013" lon="3.698285"><time>2026-05-02T22:52:10Z</time></trkpt>
</trkseg>
</trk>
<trk>
<name>hhshs18</name>
<cmt>v</cmt>
<desc>Hensies Sentier n°18 </desc>
<link href="https://chemins.be/hensies/sentier/18"/><trkseg>
<trkpt lat="50.434963" lon="3.684978"><time>2026-05-02T21:52:10Z</time></trkpt>
<trkpt lat="50.435097" lon="3.684962"><time>2026-05-02T22:02:10Z</time></trkpt>
<trkpt lat="50.435258" lon="3.684706"><time>2026-05-02T22:12:10Z</time></trkpt>
<trkpt lat="50.436206" lon="3.685509"><time>2026-05-02T22:22:10Z</time></trkpt>
<trkpt lat="50.436423" lon="3.685703"><time>2026-05-02T22:32:10Z</time></trkpt>
<trkpt lat="50.436957" lon="3.686174"><time>2026-05-02T22:42:10Z</time></trkpt>
<trkpt lat="50.437116" lon="3.685735"><time>2026-05-02T22:52:10Z</time></trkpt>
<trkpt lat="50.437657" lon="3.685981"><time>2026-05-02T23:02:10Z</time></trkpt>
<trkpt lat="50.437926" lon="3.685864"><time>2026-05-02T23:12:10Z</time></trkpt>
<trkpt lat="50.438015" lon="3.685722"><time>2026-05-02T23:22:10Z</time></trkpt>
<trkpt lat="50.438456" lon="3.685857"><time>2026-05-02T23:32:10Z</time></trkpt>
<trkpt lat="50.438982" lon="3.686163"><time>2026-05-02T23:42:10Z</time></trkpt>
</trkseg></trk>
<trk>
<name>hhshs18</name>
<cmt>q</cmt>
<desc>Hensies Sentier n°18 </desc>
<link href="https://chemins.be/hensies/sentier/18"/><trkseg>
<trkpt lat="50.438982" lon="3.686163"><time>2026-05-02T23:42:10Z</time></trkpt>
<trkpt lat="50.439394" lon="3.686378"><time>2026-05-02T23:52:10Z</time></trkpt>
<trkpt lat="50.439773" lon="3.686640"><time>2026-05-03T00:02:10Z</time></trkpt>
<trkpt lat="50.440155" lon="3.687367"><time>2026-05-03T00:12:10Z</time></trkpt>
<trkpt lat="50.441248" lon="3.688139"><time>2026-05-03T00:22:10Z</time></trkpt>
</trkseg>
</trk>
<trk>
<name>hhshs19</name>
<cmt>q</cmt>
<desc>Hensies Sentier n°19 </desc>
<link href="https://chemins.be/hensies/sentier/19"/><trkseg>
<trkpt lat="50.439861" lon="3.684668"><time>2026-05-02T21:52:10Z</time></trkpt>
<trkpt lat="50.439357" lon="3.686376"><time>2026-05-02T22:02:10Z</time></trkpt>
<trkpt lat="50.439781" lon="3.686634"><time>2026-05-02T22:12:10Z</time></trkpt>
<trkpt lat="50.440109" lon="3.687320"><time>2026-05-02T22:22:10Z</time></trkpt>
<trkpt lat="50.439870" lon="3.688728"><time>2026-05-02T22:32:10Z</time></trkpt>
<trkpt lat="50.438130" lon="3.690416"><time>2026-05-02T22:42:10Z</time></trkpt>
</trkseg>
</trk>
<trk>
<name>hhshs2</name>
<cmt>v</cmt>
<desc>Hensies Chemin n°2 </desc>
<link href="https://chemins.be/hensies/chemin/2"/><trkseg>
<trkpt lat="50.437299" lon="3.669951"><time>2026-05-02T21:52:10Z</time></trkpt>
<trkpt lat="50.436842" lon="3.668792"><time>2026-05-02T22:02:10Z</time></trkpt>
</trkseg>
</trk>
<trk>
<name>hhshs20</name>
<cmt>v</cmt>
<desc>Hensies Sentier n°20 </desc>
<link href="https://chemins.be/hensies/sentier/20"/><trkseg>
<trkpt lat="50.438757" lon="3.684138"><time>2026-05-02T21:52:10Z</time></trkpt>
<trkpt lat="50.438545" lon="3.684864"><time>2026-05-02T22:02:10Z</time></trkpt>
<trkpt lat="50.438363" lon="3.685823"><time>2026-05-02T22:12:10Z</time></trkpt>
<trkpt lat="50.438231" lon="3.685789"><time>2026-05-02T22:22:10Z</time></trkpt>
</trkseg></trk>
<trk>
<name>hhshs20</name>
<cmt>q</cmt>
<desc>Hensies Sentier n°20 </desc>
<link href="https://chemins.be/hensies/sentier/20"/><trkseg>
<trkpt lat="50.438231" lon="3.685789"><time>2026-05-02T22:22:10Z</time></trkpt>
<trkpt lat="50.437834" lon="3.687161"><time>2026-05-02T22:32:10Z</time></trkpt>
<trkpt lat="50.437258" lon="3.688506"><time>2026-05-02T22:42:10Z</time></trkpt>
</trkseg>
</trk>
<trk>
<name>hhshs21</name>
<cmt>v</cmt>
<desc>Hensies Sentier n°21 </desc>
<link href="https://chemins.be/hensies/sentier/21"/><trkseg>
<trkpt lat="50.437759" lon="3.692063"><time>2026-05-02T21:52:10Z</time></trkpt>
<trkpt lat="50.438533" lon="3.687492"><time>2026-05-02T22:02:10Z</time></trkpt>
<trkpt lat="50.439002" lon="3.686197"><time>2026-05-02T22:12:10Z</time></trkpt>
</trkseg>
</trk>
<trk>
<name>hhshs22</name>
<cmt>v</cmt>
<desc>Hensies Sentier n°22 </desc>
<link href="https://chemins.be/hensies/sentier/22"/><trkseg>
<trkpt lat="50.431156" lon="3.687482"><time>2026-05-02T21:52:10Z</time></trkpt>
<trkpt lat="50.431237" lon="3.687495"><time>2026-05-02T22:02:10Z</time></trkpt>
<trkpt lat="50.431526" lon="3.687674"><time>2026-05-02T22:12:10Z</time></trkpt>
<trkpt lat="50.431815" lon="3.687838"><time>2026-05-02T22:22:10Z</time></trkpt>
<trkpt lat="50.432076" lon="3.687975"><time>2026-05-02T22:32:10Z</time></trkpt>
<trkpt lat="50.432374" lon="3.688140"><time>2026-05-02T22:42:10Z</time></trkpt>
<trkpt lat="50.432419" lon="3.688153"><time>2026-05-02T22:52:10Z</time></trkpt>
<trkpt lat="50.432482" lon="3.688167"><time>2026-05-02T23:02:10Z</time></trkpt>
<trkpt lat="50.432995" lon="3.688230"><time>2026-05-02T23:12:10Z</time></trkpt>
<trkpt lat="50.433040" lon="3.688229"><time>2026-05-02T23:22:10Z</time></trkpt>
<trkpt lat="50.433067" lon="3.688214"><time>2026-05-02T23:32:10Z</time></trkpt>
<trkpt lat="50.433102" lon="3.688186"><time>2026-05-02T23:42:10Z</time></trkpt>
<trkpt lat="50.433138" lon="3.688129"><time>2026-05-02T23:52:10Z</time></trkpt>
<trkpt lat="50.433494" lon="3.687505"><time>2026-05-03T00:02:10Z</time></trkpt>
<trkpt lat="50.433565" lon="3.687419"><time>2026-05-03T00:12:10Z</time></trkpt>
</trkseg>
</trk>
<trk>
<name>hhshs23</name>
<cmt>q</cmt>
<desc>Hensies Sentier n°23 </desc>
<link href="https://chemins.be/hensies/sentier/23"/><trkseg>
<trkpt lat="50.435713" lon="3.681082"><time>2026-05-02T21:52:10Z</time></trkpt>
<trkpt lat="50.436188" lon="3.680822"><time>2026-05-02T22:02:10Z</time></trkpt>
<trkpt lat="50.436313" lon="3.680693"><time>2026-05-02T22:12:10Z</time></trkpt>
<trkpt lat="50.437005" lon="3.680613"><time>2026-05-02T22:22:10Z</time></trkpt>
<trkpt lat="50.437623" lon="3.680336"><time>2026-05-02T22:32:10Z</time></trkpt>
</trkseg></trk>
<trk>
<name>hhshs23</name>
<cmt>v</cmt>
<desc>Hensies Sentier n°23 </desc>
<link href="https://chemins.be/hensies/sentier/23"/><trkseg>
<trkpt lat="50.437623" lon="3.680336"><time>2026-05-02T22:32:10Z</time></trkpt>
<trkpt lat="50.438035" lon="3.679978"><time>2026-05-02T22:42:10Z</time></trkpt>
<trkpt lat="50.439903" lon="3.679693"><time>2026-05-02T22:52:10Z</time></trkpt>
</trkseg></trk>
<trk>
<name>hhshs23</name>
<cmt>q</cmt>
<desc>Hensies Sentier n°23 </desc>
<link href="https://chemins.be/hensies/sentier/23"/><trkseg>
<trkpt lat="50.439903" lon="3.679693"><time>2026-05-02T22:52:10Z</time></trkpt>
<trkpt lat="50.441557" lon="3.676606"><time>2026-05-02T23:02:10Z</time></trkpt>
</trkseg></trk>
<trk>
<name>hhshs23</name>
<cmt>s</cmt>
<desc>Hensies Sentier n°23 </desc>
<link href="https://chemins.be/hensies/sentier/23"/><trkseg>
<trkpt lat="50.441557" lon="3.676606"><time>2026-05-02T23:02:10Z</time></trkpt>
<trkpt lat="50.441938" lon="3.675919"><time>2026-05-02T23:12:10Z</time></trkpt>
</trkseg>
</trk>
<trk>
<name>hhshs24</name>
<cmt>q</cmt>
<desc>Hensies Sentier n°24 </desc>
<link href="https://chemins.be/hensies/sentier/24"/><trkseg>
<trkpt lat="50.438935" lon="3.682661"><time>2026-05-02T21:52:10Z</time></trkpt>
<trkpt lat="50.439799" lon="3.680491"><time>2026-05-02T22:02:10Z</time></trkpt>
<trkpt lat="50.439899" lon="3.679714"><time>2026-05-02T22:12:10Z</time></trkpt>
</trkseg>
</trk>
<trk>
<name>hhshs25</name>
<cmt>v</cmt>
<desc>Hensies Sentier n°25 </desc>
<link href="https://chemins.be/hensies/sentier/25"/><trkseg>
<trkpt lat="50.436338" lon="3.678891"><time>2026-05-02T21:52:10Z</time></trkpt>
<trkpt lat="50.437123" lon="3.679386"><time>2026-05-02T22:02:10Z</time></trkpt>
<trkpt lat="50.437432" lon="3.679903"><time>2026-05-02T22:12:10Z</time></trkpt>
<trkpt lat="50.437797" lon="3.680728"><time>2026-05-02T22:22:10Z</time></trkpt>
</trkseg></trk>
<trk>
<name>hhshs25</name>
<cmt>q</cmt>
<desc>Hensies Sentier n°25 </desc>
<link href="https://chemins.be/hensies/sentier/25"/><trkseg>
<trkpt lat="50.437797" lon="3.680728"><time>2026-05-02T22:22:10Z</time></trkpt>
<trkpt lat="50.438598" lon="3.682546"><time>2026-05-02T22:32:10Z</time></trkpt>
</trkseg>
</trk>
<trk>
<name>hhshs27</name>
<cmt>v</cmt>
<desc>Hensies Sentier n°27 </desc>
<link href="https://chemins.be/hensies/sentier/27"/><trkseg>
<trkpt lat="50.436288" lon="3.676347"><time>2026-05-02T21:52:10Z</time></trkpt>
<trkpt lat="50.436704" lon="3.675189"><time>2026-05-02T22:02:10Z</time></trkpt>
</trkseg></trk>
<trk>
<name>hhshs27</name>
<cmt>q</cmt>
<desc>Hensies Sentier n°27 </desc>
<link href="https://chemins.be/hensies/sentier/27"/><trkseg>
<trkpt lat="50.436704" lon="3.675189"><time>2026-05-02T22:02:10Z</time></trkpt>
<trkpt lat="50.437333" lon="3.674425"><time>2026-05-02T22:12:10Z</time></trkpt>
<trkpt lat="50.437305" lon="3.673618"><time>2026-05-02T22:22:10Z</time></trkpt>
<trkpt lat="50.437508" lon="3.672785"><time>2026-05-02T22:32:10Z</time></trkpt>
<trkpt lat="50.437956" lon="3.672270"><time>2026-05-02T22:42:10Z</time></trkpt>
<trkpt lat="50.438410" lon="3.671084"><time>2026-05-02T22:52:10Z</time></trkpt>
</trkseg></trk>
<trk>
<name>hhshs27</name>
<cmt>s</cmt>
<desc>Hensies Sentier n°27 </desc>
<link href="https://chemins.be/hensies/sentier/27"/><trkseg>
<trkpt lat="50.438410" lon="3.671084"><time>2026-05-02T22:52:10Z</time></trkpt>
<trkpt lat="50.440874" lon="3.671120"><time>2026-05-02T23:02:10Z</time></trkpt>
<trkpt lat="50.441325" lon="3.670756"><time>2026-05-02T23:12:10Z</time></trkpt>
</trkseg></trk>
<trk>
<name>hhshs27</name>
<cmt>v</cmt>
<desc>Hensies Sentier n°27 </desc>
<link href="https://chemins.be/hensies/sentier/27"/><trkseg>
<trkpt lat="50.441325" lon="3.670756"><time>2026-05-02T23:12:10Z</time></trkpt>
<trkpt lat="50.441466" lon="3.670404"><time>2026-05-02T23:22:10Z</time></trkpt>
<trkpt lat="50.441692" lon="3.670227"><time>2026-05-02T23:32:10Z</time></trkpt>
<trkpt lat="50.441950" lon="3.670273"><time>2026-05-02T23:42:10Z</time></trkpt>
<trkpt lat="50.442273" lon="3.670505"><time>2026-05-02T23:52:10Z</time></trkpt>
</trkseg></trk>
<trk>
<name>hhshs27</name>
<cmt>q</cmt>
<desc>Hensies Sentier n°27 </desc>
<link href="https://chemins.be/hensies/sentier/27"/><trkseg>
<trkpt lat="50.442273" lon="3.670505"><time>2026-05-02T23:52:10Z</time></trkpt>
<trkpt lat="50.445347" lon="3.668969"><time>2026-05-03T00:02:10Z</time></trkpt>
<trkpt lat="50.445802" lon="3.667481"><time>2026-05-03T00:12:10Z</time></trkpt>
</trkseg>
</trk>
<trk>
<name>hhshs28</name>
<cmt>q</cmt>
<desc>Hensies Sentier n°28 </desc>
<link href="https://chemins.be/hensies/sentier/28"/><trkseg>
<trkpt lat="50.441502" lon="3.670227"><time>2026-05-02T21:52:10Z</time></trkpt>
<trkpt lat="50.441568" lon="3.669175"><time>2026-05-02T22:02:10Z</time></trkpt>
<trkpt lat="50.441814" lon="3.668946"><time>2026-05-02T22:12:10Z</time></trkpt>
<trkpt lat="50.441878" lon="3.668067"><time>2026-05-02T22:22:10Z</time></trkpt>
<trkpt lat="50.442425" lon="3.667337"><time>2026-05-02T22:32:10Z</time></trkpt>
<trkpt lat="50.443318" lon="3.664705"><time>2026-05-02T22:42:10Z</time></trkpt>
</trkseg>
</trk>
<trk>
<name>hhshs29</name>
<cmt>q</cmt>
<desc>Hensies Sentier n°29 </desc>
<link href="https://chemins.be/hensies/sentier/29"/><trkseg>
<trkpt lat="50.444155" lon="3.673635"><time>2026-05-02T21:52:10Z</time></trkpt>
<trkpt lat="50.444111" lon="3.672476"><time>2026-05-02T22:02:10Z</time></trkpt>
<trkpt lat="50.444286" lon="3.671489"><time>2026-05-02T22:12:10Z</time></trkpt>
<trkpt lat="50.444275" lon="3.669816"><time>2026-05-02T22:22:10Z</time></trkpt>
</trkseg>
</trk>
<trk>
<name>hhshs3</name>
<cmt>v</cmt>
<desc>Hensies Chemin n°3 </desc>
<link href="https://chemins.be/hensies/chemin/3"/><trkseg>
<trkpt lat="50.421239" lon="3.681661"><time>2026-05-02T21:52:10Z</time></trkpt>
<trkpt lat="50.421155" lon="3.684490"><time>2026-05-02T22:02:10Z</time></trkpt>
<trkpt lat="50.420783" lon="3.686555"><time>2026-05-02T22:12:10Z</time></trkpt>
<trkpt lat="50.420533" lon="3.687435"><time>2026-05-02T22:22:10Z</time></trkpt>
<trkpt lat="50.420230" lon="3.690200"><time>2026-05-02T22:32:10Z</time></trkpt>
<trkpt lat="50.418733" lon="3.695456"><time>2026-05-02T22:42:10Z</time></trkpt>
</trkseg>
</trk>
<trk>
<name>hhshs30</name>
<cmt>q</cmt>
<desc>Hensies Sentier n°30 </desc>
<link href="https://chemins.be/hensies/sentier/30"/><trkseg>
<trkpt lat="50.447631" lon="3.665687"><time>2026-05-02T21:52:10Z</time></trkpt>
<trkpt lat="50.446510" lon="3.664211"><time>2026-05-02T22:02:10Z</time></trkpt>
</trkseg>
</trk>
<trk>
<name>hhshs31</name>
<cmt>q</cmt>
<desc>Hensies Sentier n°31 </desc>
<link href="https://chemins.be/hensies/sentier/31"/><trkseg>
<trkpt lat="50.440731" lon="3.679345"><time>2026-05-02T21:52:10Z</time></trkpt>
<trkpt lat="50.442389" lon="3.680032"><time>2026-05-02T22:02:10Z</time></trkpt>
</trkseg></trk>
<trk>
<name>hhshs31</name>
<cmt>s</cmt>
<desc>Hensies Sentier n°31 </desc>
<link href="https://chemins.be/hensies/sentier/31"/><trkseg>
<trkpt lat="50.442389" lon="3.680032"><time>2026-05-02T22:02:10Z</time></trkpt>
<trkpt lat="50.443033" lon="3.679546"><time>2026-05-02T22:12:10Z</time></trkpt>
</trkseg></trk>
<trk>
<name>hhshs31</name>
<cmt>q</cmt>
<desc>Hensies Sentier n°31 </desc>
<link href="https://chemins.be/hensies/sentier/31"/><trkseg>
<trkpt lat="50.443033" lon="3.679546"><time>2026-05-02T22:12:10Z</time></trkpt>
<trkpt lat="50.444437" lon="3.678579"><time>2026-05-02T22:22:10Z</time></trkpt>
<trkpt lat="50.446536" lon="3.677103"><time>2026-05-02T22:32:10Z</time></trkpt>
<trkpt lat="50.449957" lon="3.672854"><time>2026-05-02T22:42:10Z</time></trkpt>
<trkpt lat="50.451651" lon="3.673987"><time>2026-05-02T22:52:10Z</time></trkpt>
<trkpt lat="50.453356" lon="3.663833"><time>2026-05-02T23:02:10Z</time></trkpt>
<trkpt lat="50.454132" lon="3.662752"><time>2026-05-02T23:12:10Z</time></trkpt>
</trkseg></trk>
<trk>
<name>hhshs31</name>
<cmt>v</cmt>
<desc>Hensies Sentier n°31 </desc>
<link href="https://chemins.be/hensies/sentier/31"/><trkseg>
<trkpt lat="50.454132" lon="3.662752"><time>2026-05-02T23:12:10Z</time></trkpt>
<trkpt lat="50.455766" lon="3.662915"><time>2026-05-02T23:22:10Z</time></trkpt>
<trkpt lat="50.456881" lon="3.661953"><time>2026-05-02T23:32:10Z</time></trkpt>
<trkpt lat="50.457122" lon="3.661979"><time>2026-05-02T23:42:10Z</time></trkpt>
<trkpt lat="50.457712" lon="3.661421"><time>2026-05-02T23:52:10Z</time></trkpt>
<trkpt lat="50.457908" lon="3.660687"><time>2026-05-03T00:02:10Z</time></trkpt>
<trkpt lat="50.458460" lon="3.660451"><time>2026-05-03T00:12:10Z</time></trkpt>
<trkpt lat="50.459209" lon="3.658258"><time>2026-05-03T00:22:10Z</time></trkpt>
<trkpt lat="50.461741" lon="3.655518"><time>2026-05-03T00:32:10Z</time></trkpt>
<trkpt lat="50.462310" lon="3.655587"><time>2026-05-03T00:42:10Z</time></trkpt>
</trkseg>
</trk>
<trk>
<name>hhshs32</name>
<cmt>v</cmt>
<desc>Hensies Sentier n°32 </desc>
<link href="https://chemins.be/hensies/sentier/32"/><trkseg>
<trkpt lat="50.434072" lon="3.683400"><time>2026-05-02T21:52:10Z</time></trkpt>
<trkpt lat="50.433846" lon="3.681658"><time>2026-05-02T22:02:10Z</time></trkpt>
<trkpt lat="50.433022" lon="3.681470"><time>2026-05-02T22:12:10Z</time></trkpt>
<trkpt lat="50.433022" lon="3.681352"><time>2026-05-02T22:22:10Z</time></trkpt>
<trkpt lat="50.432590" lon="3.681251"><time>2026-05-02T22:32:10Z</time></trkpt>
<trkpt lat="50.432493" lon="3.681399"><time>2026-05-02T22:42:10Z</time></trkpt>
<trkpt lat="50.432070" lon="3.681492"><time>2026-05-02T22:52:10Z</time></trkpt>
<trkpt lat="50.432055" lon="3.681262"><time>2026-05-02T23:02:10Z</time></trkpt>
<trkpt lat="50.431865" lon="3.681180"><time>2026-05-02T23:12:10Z</time></trkpt>
<trkpt lat="50.431676" lon="3.681112"><time>2026-05-02T23:22:10Z</time></trkpt>
<trkpt lat="50.431550" lon="3.681015"><time>2026-05-02T23:32:10Z</time></trkpt>
<trkpt lat="50.431243" lon="3.680767"><time>2026-05-02T23:42:10Z</time></trkpt>
<trkpt lat="50.430321" lon="3.680391"><time>2026-05-02T23:52:10Z</time></trkpt>
<trkpt lat="50.428643" lon="3.680020"><time>2026-05-03T00:02:10Z</time></trkpt>
<trkpt lat="50.428537" lon="3.680035"><time>2026-05-03T00:12:10Z</time></trkpt>
<trkpt lat="50.428474" lon="3.679801"><time>2026-05-03T00:22:10Z</time></trkpt>
<trkpt lat="50.428246" lon="3.679416"><time>2026-05-03T00:32:10Z</time></trkpt>
<trkpt lat="50.428102" lon="3.679166"><time>2026-05-03T00:42:10Z</time></trkpt>
<trkpt lat="50.428013" lon="3.678134"><time>2026-05-03T00:52:10Z</time></trkpt>
<trkpt lat="50.427689" lon="3.677370"><time>2026-05-03T01:02:10Z</time></trkpt>
<trkpt lat="50.427291" lon="3.675405"><time>2026-05-03T01:12:10Z</time></trkpt>
<trkpt lat="50.426447" lon="3.674137"><time>2026-05-03T01:22:10Z</time></trkpt>
<trkpt lat="50.426033" lon="3.672552"><time>2026-05-03T01:32:10Z</time></trkpt>
<trkpt lat="50.425882" lon="3.671274"><time>2026-05-03T01:42:10Z</time></trkpt>
<trkpt lat="50.423701" lon="3.670518"><time>2026-05-03T01:52:10Z</time></trkpt>
<trkpt lat="50.423727" lon="3.670391"><time>2026-05-03T02:02:10Z</time></trkpt>
</trkseg></trk>
<trk>
<name>hhshs32</name>
<cmt>d</cmt>
<desc>Hensies Sentier n°32 </desc>
<link href="https://chemins.be/hensies/sentier/32"/><trkseg>
<trkpt lat="50.423727" lon="3.670391"><time>2026-05-03T02:02:10Z</time></trkpt>
<trkpt lat="50.422826" lon="3.669996"><time>2026-05-03T02:12:10Z</time></trkpt>
</trkseg>
</trk>
<trk>
<name>hhshs33</name>
<cmt>v</cmt>
<desc>Hensies Sentier n°33 </desc>
<link href="https://chemins.be/hensies/sentier/33"/><trkseg>
<trkpt lat="50.430834" lon="3.683193"><time>2026-05-02T21:52:10Z</time></trkpt>
<trkpt lat="50.430976" lon="3.682882"><time>2026-05-02T22:02:10Z</time></trkpt>
<trkpt lat="50.431065" lon="3.682627"><time>2026-05-02T22:12:10Z</time></trkpt>
<trkpt lat="50.431180" lon="3.682274"><time>2026-05-02T22:22:10Z</time></trkpt>
<trkpt lat="50.431338" lon="3.681708"><time>2026-05-02T22:32:10Z</time></trkpt>
<trkpt lat="50.431550" lon="3.681015"><time>2026-05-02T22:42:10Z</time></trkpt>
</trkseg>
</trk>
<trk>
<name>hhshs34</name>
<cmt>v</cmt>
<desc>Hensies Sentier n°34 </desc>
<link href="https://chemins.be/hensies/sentier/34"/><trkseg>
<trkpt lat="50.423692" lon="3.668956"><time>2026-05-02T21:52:10Z</time></trkpt>
<trkpt lat="50.423721" lon="3.669898"><time>2026-05-02T22:02:10Z</time></trkpt>
<trkpt lat="50.423745" lon="3.670391"><time>2026-05-02T22:12:10Z</time></trkpt>
</trkseg></trk>
<trk>
<name>hhshs34</name>
<cmt>d</cmt>
<desc>Hensies Sentier n°34 </desc>
<link href="https://chemins.be/hensies/sentier/34"/><trkseg>
<trkpt lat="50.423745" lon="3.670391"><time>2026-05-02T22:12:10Z</time></trkpt>
<trkpt lat="50.423723" lon="3.672090"><time>2026-05-02T22:22:10Z</time></trkpt>
<trkpt lat="50.423455" lon="3.672236"><time>2026-05-02T22:32:10Z</time></trkpt>
<trkpt lat="50.423554" lon="3.673772"><time>2026-05-02T22:42:10Z</time></trkpt>
<trkpt lat="50.422695" lon="3.677463"><time>2026-05-02T22:52:10Z</time></trkpt>
<trkpt lat="50.422733" lon="3.679909"><time>2026-05-02T23:02:10Z</time></trkpt>
</trkseg>
</trk>
<trk>
<name>hhshs35</name>
<cmt>q</cmt>
<desc>Hensies Chemin n°35 </desc>
<link href="https://chemins.be/hensies/chemin/35"/><trkseg>
<trkpt lat="50.430827" lon="3.688140"><time>2026-05-02T21:52:10Z</time></trkpt>
<trkpt lat="50.432037" lon="3.690100"><time>2026-05-02T22:02:10Z</time></trkpt>
</trkseg>
</trk>
<trk>
<name>hhshs36</name>
<cmt>d</cmt>
<desc>Hensies Sentier n°36 </desc>
<link href="https://chemins.be/hensies/sentier/36"/><trkseg>
<trkpt lat="50.439812" lon="3.692053"><time>2026-05-02T21:52:10Z</time></trkpt>
<trkpt lat="50.440865" lon="3.692321"><time>2026-05-02T22:02:10Z</time></trkpt>
</trkseg>
</trk>
<trk>
<name>hhshs37</name>
<cmt>q</cmt>
<desc>Hensies Sentier n°37 </desc>
<link href="https://chemins.be/hensies/sentier/37"/><trkseg>
<trkpt lat="50.451662" lon="3.673976"><time>2026-05-02T21:52:10Z</time></trkpt>
<trkpt lat="50.457115" lon="3.678181"><time>2026-05-02T22:02:10Z</time></trkpt>
</trkseg></trk>
<trk>
<name>hhshs37</name>
<cmt>s</cmt>
<desc>Hensies Sentier n°37 </desc>
<link href="https://chemins.be/hensies/sentier/37"/><trkseg>
<trkpt lat="50.457115" lon="3.678181"><time>2026-05-02T22:02:10Z</time></trkpt>
<trkpt lat="50.459340" lon="3.679896"><time>2026-05-02T22:12:10Z</time></trkpt>
</trkseg></trk>
<trk>
<name>hhshs37</name>
<cmt>q</cmt>
<desc>Hensies Sentier n°37 </desc>
<link href="https://chemins.be/hensies/sentier/37"/><trkseg>
<trkpt lat="50.459340" lon="3.679896"><time>2026-05-02T22:12:10Z</time></trkpt>
<trkpt lat="50.460263" lon="3.679963"><time>2026-05-02T22:22:10Z</time></trkpt>
</trkseg>
</trk>
<trk>
<name>hhshs38</name>
<cmt>q</cmt>
<desc>Hensies Sentier n°38 </desc>
<link href="https://chemins.be/hensies/sentier/38"/><trkseg>
<trkpt lat="50.443777" lon="3.665893"><time>2026-05-02T21:52:10Z</time></trkpt>
<trkpt lat="50.444302" lon="3.665550"><time>2026-05-02T22:02:10Z</time></trkpt>
<trkpt lat="50.445062" lon="3.665584"><time>2026-05-02T22:12:10Z</time></trkpt>
<trkpt lat="50.445811" lon="3.665163"><time>2026-05-02T22:22:10Z</time></trkpt>
<trkpt lat="50.446494" lon="3.664237"><time>2026-05-02T22:32:10Z</time></trkpt>
<trkpt lat="50.447368" lon="3.660288"><time>2026-05-02T22:42:10Z</time></trkpt>
</trkseg>
</trk>
<trk>
<name>hhshs39</name>
<cmt>v</cmt>
<desc>Hensies Sentier n°39 </desc>
<link href="https://chemins.be/hensies/sentier/39"/><trkseg>
<trkpt lat="50.435440" lon="3.682015"><time>2026-05-02T21:52:10Z</time></trkpt>
<trkpt lat="50.434918" lon="3.682051"><time>2026-05-02T22:02:10Z</time></trkpt>
<trkpt lat="50.434753" lon="3.681391"><time>2026-05-02T22:12:10Z</time></trkpt>
<trkpt lat="50.433837" lon="3.681700"><time>2026-05-02T22:22:10Z</time></trkpt>
</trkseg>
</trk>
<trk>
<name>hhshs4</name>
<cmt>s</cmt>
<desc>Hensies Chemin n°4 </desc>
<link href="https://chemins.be/hensies/chemin/4"/><trkseg>
<trkpt lat="50.442749" lon="3.675390"><time>2026-05-02T21:52:10Z</time></trkpt>
<trkpt lat="50.441860" lon="3.676048"><time>2026-05-02T22:02:10Z</time></trkpt>
<trkpt lat="50.441806" lon="3.678008"><time>2026-05-02T22:12:10Z</time></trkpt>
<trkpt lat="50.440835" lon="3.678866"><time>2026-05-02T22:22:10Z</time></trkpt>
</trkseg>
</trk>
<trk>
<name>hhshs40</name>
<cmt>v</cmt>
<desc>Hensies Sentier n°40 </desc>
<link href="https://chemins.be/hensies/sentier/40"/><trkseg>
<trkpt lat="50.433455" lon="3.681555"><time>2026-05-02T21:52:10Z</time></trkpt>
<trkpt lat="50.433593" lon="3.680038"><time>2026-05-02T22:02:10Z</time></trkpt>
<trkpt lat="50.433789" lon="3.679386"><time>2026-05-02T22:12:10Z</time></trkpt>
<trkpt lat="50.433767" lon="3.677515"><time>2026-05-02T22:22:10Z</time></trkpt>
<trkpt lat="50.434363" lon="3.673094"><time>2026-05-02T22:32:10Z</time></trkpt>
<trkpt lat="50.434205" lon="3.672914"><time>2026-05-02T22:42:10Z</time></trkpt>
<trkpt lat="50.434413" lon="3.672021"><time>2026-05-02T22:52:10Z</time></trkpt>
</trkseg></trk>
<trk>
<name>hhshs40</name>
<cmt>d</cmt>
<desc>Hensies Sentier n°40 </desc>
<link href="https://chemins.be/hensies/sentier/40"/><trkseg>
<trkpt lat="50.434413" lon="3.672021"><time>2026-05-02T22:52:10Z</time></trkpt>
<trkpt lat="50.433975" lon="3.670991"><time>2026-05-02T23:02:10Z</time></trkpt>
<trkpt lat="50.434156" lon="3.669953"><time>2026-05-02T23:12:10Z</time></trkpt>
<trkpt lat="50.433997" lon="3.668906"><time>2026-05-02T23:22:10Z</time></trkpt>
</trkseg>
</trk>
<trk>
<name>hhshs41</name>
<cmt>v</cmt>
<desc>Hensies Sentier n°41 </desc>
<link href="https://chemins.be/hensies/sentier/41"/><trkseg>
<trkpt lat="50.436255" lon="3.678079"><time>2026-05-02T21:52:10Z</time></trkpt>
<trkpt lat="50.434988" lon="3.676985"><time>2026-05-02T22:02:10Z</time></trkpt>
<trkpt lat="50.433922" lon="3.676613"><time>2026-05-02T22:12:10Z</time></trkpt>
</trkseg>
</trk>
<trk>
<name>hhshs42</name>
<cmt>d</cmt>
<desc>Hensies Sentier n°42 </desc>
<link href="https://chemins.be/hensies/sentier/42"/><trkseg>
<trkpt lat="50.430344" lon="3.684517"><time>2026-05-02T21:52:10Z</time></trkpt>
<trkpt lat="50.430481" lon="3.684932"><time>2026-05-02T22:02:10Z</time></trkpt>
<trkpt lat="50.430439" lon="3.684997"><time>2026-05-02T22:12:10Z</time></trkpt>
<trkpt lat="50.430371" lon="3.685131"><time>2026-05-02T22:22:10Z</time></trkpt>
</trkseg></trk>
<trk>
<name>hhshs42</name>
<cmt>v</cmt>
<desc>Hensies Sentier n°42 </desc>
<link href="https://chemins.be/hensies/sentier/42"/><trkseg>
<trkpt lat="50.430371" lon="3.685131"><time>2026-05-02T22:22:10Z</time></trkpt>
<trkpt lat="50.430588" lon="3.685618"><time>2026-05-02T22:32:10Z</time></trkpt>
<trkpt lat="50.430670" lon="3.685800"><time>2026-05-02T22:42:10Z</time></trkpt>
<trkpt lat="50.430706" lon="3.685855"><time>2026-05-02T22:52:10Z</time></trkpt>
<trkpt lat="50.430797" lon="3.685939"><time>2026-05-02T23:02:10Z</time></trkpt>
<trkpt lat="50.430987" lon="3.686147"><time>2026-05-02T23:12:10Z</time></trkpt>
<trkpt lat="50.431140" lon="3.686300"><time>2026-05-02T23:22:10Z</time></trkpt>
<trkpt lat="50.431339" lon="3.686508"><time>2026-05-02T23:32:10Z</time></trkpt>
<trkpt lat="50.431511" lon="3.686646"><time>2026-05-02T23:42:10Z</time></trkpt>
</trkseg>
</trk>
<trk>
<name>hhshs43</name>
<cmt>q</cmt>
<desc>Hensies Sentier n°43 </desc>
<link href="https://chemins.be/hensies/sentier/43"/><trkseg>
<trkpt lat="50.437652" lon="3.692146"><time>2026-05-02T21:52:10Z</time></trkpt>
<trkpt lat="50.437595" lon="3.693308"><time>2026-05-02T22:02:10Z</time></trkpt>
<trkpt lat="50.437738" lon="3.693641"><time>2026-05-02T22:12:10Z</time></trkpt>
<trkpt lat="50.437709" lon="3.694316"><time>2026-05-02T22:22:10Z</time></trkpt>
</trkseg>
</trk>
<trk>
<name>hhshs45</name>
<cmt>q</cmt>
<desc>Hensies Sentier n°45 </desc>
<link href="https://chemins.be/hensies/sentier/45"/><trkseg>
<trkpt lat="50.440343" lon="3.684466"><time>2026-05-02T21:52:10Z</time></trkpt>
<trkpt lat="50.442252" lon="3.684502"><time>2026-05-02T22:02:10Z</time></trkpt>
<trkpt lat="50.443127" lon="3.685554"><time>2026-05-02T22:12:10Z</time></trkpt>
</trkseg>
</trk>
<trk>
<name>hhshs46</name>
<cmt>v</cmt>
<desc>Hensies Sentier n°46 </desc>
<link href="https://chemins.be/hensies/sentier/46"/><trkseg>
<trkpt lat="50.432032" lon="3.690036"><time>2026-05-02T21:52:10Z</time></trkpt>
<trkpt lat="50.431959" lon="3.690589"><time>2026-05-02T22:02:10Z</time></trkpt>
<trkpt lat="50.432915" lon="3.690882"><time>2026-05-02T22:12:10Z</time></trkpt>
<trkpt lat="50.433353" lon="3.691891"><time>2026-05-02T22:22:10Z</time></trkpt>
<trkpt lat="50.433994" lon="3.692332"><time>2026-05-02T22:32:10Z</time></trkpt>
<trkpt lat="50.436086" lon="3.693457"><time>2026-05-02T22:42:10Z</time></trkpt>
<trkpt lat="50.436156" lon="3.693087"><time>2026-05-02T22:52:10Z</time></trkpt>
<trkpt lat="50.437053" lon="3.693397"><time>2026-05-02T23:02:10Z</time></trkpt>
</trkseg>
</trk>
<trk>
<name>hhshs47</name>
<cmt>q</cmt>
<desc>Hensies Sentier n°47 </desc>
<link href="https://chemins.be/hensies/sentier/47"/><trkseg>
<trkpt lat="50.440125" lon="3.684536"><time>2026-05-02T21:52:10Z</time></trkpt>
<trkpt lat="50.442802" lon="3.680755"><time>2026-05-02T22:02:10Z</time></trkpt>
</trkseg></trk>
<trk>
<name>hhshs47</name>
<cmt>s</cmt>
<desc>Hensies Sentier n°47 </desc>
<link href="https://chemins.be/hensies/sentier/47"/><trkseg>
<trkpt lat="50.442802" lon="3.680755"><time>2026-05-02T22:02:10Z</time></trkpt>
<trkpt lat="50.443198" lon="3.680212"><time>2026-05-02T22:12:10Z</time></trkpt>
</trkseg></trk>
<trk>
<name>hhshs47</name>
<cmt>q</cmt>
<desc>Hensies Sentier n°47 </desc>
<link href="https://chemins.be/hensies/sentier/47"/><trkseg>
<trkpt lat="50.443198" lon="3.680212"><time>2026-05-02T22:12:10Z</time></trkpt>
<trkpt lat="50.444252" lon="3.678743"><time>2026-05-02T22:22:10Z</time></trkpt>
</trkseg>
</trk>
<trk>
<name>hhshs48</name>
<cmt>q</cmt>
<desc>Hensies Sentier n°48 </desc>
<link href="https://chemins.be/hensies/sentier/48"/><trkseg>
<trkpt lat="50.434193" lon="3.674253"><time>2026-05-02T21:52:10Z</time></trkpt>
<trkpt lat="50.433150" lon="3.673823"><time>2026-05-02T22:02:10Z</time></trkpt>
<trkpt lat="50.432776" lon="3.674038"><time>2026-05-02T22:12:10Z</time></trkpt>
<trkpt lat="50.431596" lon="3.672686"><time>2026-05-02T22:22:10Z</time></trkpt>
<trkpt lat="50.431551" lon="3.671370"><time>2026-05-02T22:32:10Z</time></trkpt>
<trkpt lat="50.430211" lon="3.671649"><time>2026-05-02T22:42:10Z</time></trkpt>
<trkpt lat="50.430225" lon="3.669417"><time>2026-05-02T22:52:10Z</time></trkpt>
</trkseg>
</trk>
<trk>
<name>hhshs49</name>
<cmt>v</cmt>
<desc>Hensies Sentier n°49 </desc>
<link href="https://chemins.be/hensies/sentier/49"/><trkseg>
<trkpt lat="50.434146" lon="3.686791"><time>2026-05-02T21:52:10Z</time></trkpt>
<trkpt lat="50.435337" lon="3.687436"><time>2026-05-02T22:02:10Z</time></trkpt>
</trkseg>
</trk>
<trk>
<name>hhshs5</name>
<cmt>v</cmt>
<desc>Hensies Chemin n°5 </desc>
<link href="https://chemins.be/hensies/chemin/5"/><trkseg>
<trkpt lat="50.424002" lon="3.668865"><time>2026-05-02T21:52:10Z</time></trkpt>
<trkpt lat="50.430614" lon="3.669434"><time>2026-05-02T22:02:10Z</time></trkpt>
<trkpt lat="50.431158" lon="3.669142"><time>2026-05-02T22:12:10Z</time></trkpt>
<trkpt lat="50.436806" lon="3.668803"><time>2026-05-02T22:22:10Z</time></trkpt>
<trkpt lat="50.437287" lon="3.669927"><time>2026-05-02T22:32:10Z</time></trkpt>
</trkseg></trk>
<trk>
<name>hhshs5</name>
<cmt>r</cmt>
<desc>Hensies Chemin n°5 </desc>
<link href="https://chemins.be/hensies/chemin/5"/><trkseg>
<trkpt lat="50.437287" lon="3.669927"><time>2026-05-02T22:32:10Z</time></trkpt>
<trkpt lat="50.437992" lon="3.670888"><time>2026-05-02T22:42:10Z</time></trkpt>
<trkpt lat="50.438342" lon="3.671152"><time>2026-05-02T22:52:10Z</time></trkpt>
<trkpt lat="50.438408" lon="3.671036"><time>2026-05-02T23:02:10Z</time></trkpt>
</trkseg></trk>
<trk>
<name>hhshs5</name>
<cmt>s</cmt>
<desc>Hensies Chemin n°5 </desc>
<link href="https://chemins.be/hensies/chemin/5"/><trkseg>
<trkpt lat="50.438408" lon="3.671036"><time>2026-05-02T23:02:10Z</time></trkpt>
<trkpt lat="50.440873" lon="3.671077"><time>2026-05-02T23:12:10Z</time></trkpt>
<trkpt lat="50.441336" lon="3.670781"><time>2026-05-02T23:22:10Z</time></trkpt>
</trkseg></trk>
<trk>
<name>hhshs5</name>
<cmt>v</cmt>
<desc>Hensies Chemin n°5 </desc>
<link href="https://chemins.be/hensies/chemin/5"/><trkseg>
<trkpt lat="50.441336" lon="3.670781"><time>2026-05-02T23:22:10Z</time></trkpt>
<trkpt lat="50.441474" lon="3.670402"><time>2026-05-02T23:32:10Z</time></trkpt>
<trkpt lat="50.441706" lon="3.670177"><time>2026-05-02T23:42:10Z</time></trkpt>
<trkpt lat="50.441950" lon="3.670266"><time>2026-05-02T23:52:10Z</time></trkpt>
<trkpt lat="50.443117" lon="3.671062"><time>2026-05-03T00:02:10Z</time></trkpt>
<trkpt lat="50.444289" lon="3.671588"><time>2026-05-03T00:12:10Z</time></trkpt>
<trkpt lat="50.445295" lon="3.671605"><time>2026-05-03T00:22:10Z</time></trkpt>
</trkseg>
</trk>
<trk>
<name>hhshs50</name>
<cmt>v</cmt>
<desc>Hensies Sentier n°50 </desc>
<link href="https://chemins.be/hensies/sentier/50"/><trkseg>
<trkpt lat="50.437037" lon="3.683090"><time>2026-05-02T21:52:10Z</time></trkpt>
<trkpt lat="50.437131" lon="3.682286"><time>2026-05-02T22:02:10Z</time></trkpt>
<trkpt lat="50.437796" lon="3.680714"><time>2026-05-02T22:12:10Z</time></trkpt>
</trkseg>
</trk>
<trk>
<name>hhshs7</name>
<cmt>v</cmt>
<desc>Hensies Chemin n°7 Chemin Périnette</desc>
<link href="https://chemins.be/hensies/chemin/7"/><trkseg>
<trkpt lat="50.423909" lon="3.692433"><time>2026-05-02T21:52:10Z</time></trkpt>
<trkpt lat="50.422889" lon="3.679758"><time>2026-05-02T22:02:10Z</time></trkpt>
</trkseg>
</trk>
<trk>
<name>hhshs8</name>
<cmt>v</cmt>
<desc>Hensies Chemin n°8 </desc>
<link href="https://chemins.be/hensies/chemin/8"/><trkseg>
<trkpt lat="50.441951" lon="3.686162"><time>2026-05-02T21:52:10Z</time></trkpt>
<trkpt lat="50.442129" lon="3.686255"><time>2026-05-02T22:02:10Z</time></trkpt>
<trkpt lat="50.442793" lon="3.687657"><time>2026-05-02T22:12:10Z</time></trkpt>
</trkseg></trk>
<trk>
<name>hhshs8</name>
<cmt>q</cmt>
<desc>Hensies Chemin n°8 </desc>
<link href="https://chemins.be/hensies/chemin/8"/><trkseg>
<trkpt lat="50.442793" lon="3.687657"><time>2026-05-02T22:12:10Z</time></trkpt>
<trkpt lat="50.443281" lon="3.688486"><time>2026-05-02T22:22:10Z</time></trkpt>
<trkpt lat="50.443869" lon="3.689302"><time>2026-05-02T22:32:10Z</time></trkpt>
</trkseg>
</trk>
<trk>
<name>hhshs9</name>
<cmt>v</cmt>
<desc>Hensies Chemin n°9 </desc>
<link href="https://chemins.be/hensies/chemin/9"/><trkseg>
<trkpt lat="50.446467" lon="3.668459"><time>2026-05-02T21:52:10Z</time></trkpt>
<trkpt lat="50.448294" lon="3.664161"><time>2026-05-02T22:02:10Z</time></trkpt>
</trkseg>
</trk>
<trk>
<name>hhshsi1</name>
<cmt>v</cmt>
<desc>Hensies Sentier n°i1 </desc>
<link href="https://chemins.be/hensies/sentier/i1"/><trkseg>
<trkpt lat="50.425057" lon="3.683741"><time>2026-05-02T21:52:10Z</time></trkpt>
<trkpt lat="50.425594" lon="3.683424"><time>2026-05-02T22:02:10Z</time></trkpt>
<trkpt lat="50.426185" lon="3.683063"><time>2026-05-02T22:12:10Z</time></trkpt>
<trkpt lat="50.426311" lon="3.682991"><time>2026-05-02T22:22:10Z</time></trkpt>
<trkpt lat="50.426463" lon="3.682891"><time>2026-05-02T22:32:10Z</time></trkpt>
<trkpt lat="50.426658" lon="3.682423"><time>2026-05-02T22:42:10Z</time></trkpt>
</trkseg>
</trk>
<trk>
<name>hhshsi10</name>
<cmt>v</cmt>
<desc>Hensies Sentier n°i10 </desc>
<link href="https://chemins.be/hensies/sentier/i10"/><trkseg>
<trkpt lat="50.430630" lon="3.683856"><time>2026-05-02T21:52:10Z</time></trkpt>
<trkpt lat="50.430332" lon="3.683563"><time>2026-05-02T22:02:10Z</time></trkpt>
<trkpt lat="50.430196" lon="3.683375"><time>2026-05-02T22:12:10Z</time></trkpt>
<trkpt lat="50.429854" lon="3.682833"><time>2026-05-02T22:22:10Z</time></trkpt>
</trkseg>
</trk>
<trk>
<name>hhshsi2</name>
<cmt>v</cmt>
<desc>Hensies Chemin n°i2 </desc>
<link href="https://chemins.be/hensies/chemin/i2"/><trkseg>
<trkpt lat="50.462662" lon="3.671234"><time>2026-05-02T21:52:10Z</time></trkpt>
<trkpt lat="50.462553" lon="3.669317"><time>2026-05-02T22:02:10Z</time></trkpt>
<trkpt lat="50.462330" lon="3.667629"><time>2026-05-02T22:12:10Z</time></trkpt>
<trkpt lat="50.462434" lon="3.665906"><time>2026-05-02T22:22:10Z</time></trkpt>
<trkpt lat="50.462862" lon="3.664961"><time>2026-05-02T22:32:10Z</time></trkpt>
<trkpt lat="50.462839" lon="3.662480"><time>2026-05-02T22:42:10Z</time></trkpt>
<trkpt lat="50.463099" lon="3.661171"><time>2026-05-02T22:52:10Z</time></trkpt>
<trkpt lat="50.462977" lon="3.660049"><time>2026-05-02T23:02:10Z</time></trkpt>
</trkseg>
</trk>
<trk>
<name>hhshsi3</name>
<cmt>q</cmt>
<desc>Hensies Chemin n°i3 </desc>
<link href="https://chemins.be/hensies/chemin/i3"/><trkseg>
<trkpt lat="50.426128" lon="3.679347"><time>2026-05-02T21:52:10Z</time></trkpt>
<trkpt lat="50.426203" lon="3.678306"><time>2026-05-02T22:02:10Z</time></trkpt>
<trkpt lat="50.426730" lon="3.675581"><time>2026-05-02T22:12:10Z</time></trkpt>
<trkpt lat="50.426463" lon="3.674176"><time>2026-05-02T22:22:10Z</time></trkpt>
</trkseg>
</trk>
<trk>
<name>hhshsi4</name>
<cmt>v</cmt>
<desc>Hensies Sentier n°i4 </desc>
<link href="https://chemins.be/hensies/sentier/i4"/><trkseg>
<trkpt lat="50.433186" lon="3.683035"><time>2026-05-02T21:52:10Z</time></trkpt>
<trkpt lat="50.432985" lon="3.681861"><time>2026-05-02T22:02:10Z</time></trkpt>
<trkpt lat="50.433011" lon="3.681423"><time>2026-05-02T22:12:10Z</time></trkpt>
<trkpt lat="50.433127" lon="3.679529"><time>2026-05-02T22:22:10Z</time></trkpt>
</trkseg>
</trk>
<trk>
<name>hhshsi5</name>
<cmt>v</cmt>
<desc>Hensies Sentier n°i5 </desc>
<link href="https://chemins.be/hensies/sentier/i5"/><trkseg>
<trkpt lat="50.432566" lon="3.681784"><time>2026-05-02T21:52:10Z</time></trkpt>
<trkpt lat="50.432985" lon="3.681863"><time>2026-05-02T22:02:10Z</time></trkpt>
</trkseg>
</trk>
<trk>
<name>hhshsi6</name>
<cmt>v</cmt>
<desc>Hensies Sentier n°i6 </desc>
<link href="https://chemins.be/hensies/sentier/i6"/><trkseg>
<trkpt lat="50.432662" lon="3.683409"><time>2026-05-02T21:52:10Z</time></trkpt>
<trkpt lat="50.432507" lon="3.683383"><time>2026-05-02T22:02:10Z</time></trkpt>
<trkpt lat="50.432146" lon="3.683109"><time>2026-05-02T22:12:10Z</time></trkpt>
<trkpt lat="50.432072" lon="3.681512"><time>2026-05-02T22:22:10Z</time></trkpt>
</trkseg>
</trk>
<trk>
<name>hhshsi7</name>
<cmt>v</cmt>
<desc>Hensies Sentier n°i7 </desc>
<link href="https://chemins.be/hensies/sentier/i7"/><trkseg>
<trkpt lat="50.432673" lon="3.680285"><time>2026-05-02T21:52:10Z</time></trkpt>
<trkpt lat="50.432299" lon="3.680229"><time>2026-05-02T22:02:10Z</time></trkpt>
<trkpt lat="50.430836" lon="3.679624"><time>2026-05-02T22:12:10Z</time></trkpt>
</trkseg>
</trk>
<trk>
<name>hhshsi8</name>
<cmt>v</cmt>
<desc>Hensies Sentier n°i8 </desc>
<link href="https://chemins.be/hensies/sentier/i8"/><trkseg>
<trkpt lat="50.432764" lon="3.679474"><time>2026-05-02T21:52:10Z</time></trkpt>
<trkpt lat="50.432742" lon="3.679345"><time>2026-05-02T22:02:10Z</time></trkpt>
<trkpt lat="50.432354" lon="3.679268"><time>2026-05-02T22:12:10Z</time></trkpt>
<trkpt lat="50.431271" lon="3.678796"><time>2026-05-02T22:22:10Z</time></trkpt>
<trkpt lat="50.430940" lon="3.678607"><time>2026-05-02T22:32:10Z</time></trkpt>
<trkpt lat="50.430557" lon="3.678422"><time>2026-05-02T22:42:10Z</time></trkpt>
<trkpt lat="50.430500" lon="3.680062"><time>2026-05-02T22:52:10Z</time></trkpt>
</trkseg>
</trk>
<trk>
<name>hhshsi9</name>
<cmt>v</cmt>
<desc>Hensies Sentier n°i9 </desc>
<link href="https://chemins.be/hensies/sentier/i9"/><trkseg>
<trkpt lat="50.440589" lon="3.679824"><time>2026-05-02T21:52:10Z</time></trkpt>
<trkpt lat="50.439906" lon="3.679703"><time>2026-05-02T22:02:10Z</time></trkpt>
</trkseg>
</trk>
<trk>
<name>hhshsL78A</name>
<cmt>q</cmt>
<desc>Hensies Chemin n°L78A </desc>
<link href="https://chemins.be/hensies/chemin/L78A"/><trkseg>
<trkpt lat="50.452563" lon="3.685949"><time>2026-05-02T21:52:10Z</time></trkpt>
<trkpt lat="50.452888" lon="3.686085"><time>2026-05-02T22:02:10Z</time></trkpt>
<trkpt lat="50.453212" lon="3.686151"><time>2026-05-02T22:12:10Z</time></trkpt>
<trkpt lat="50.453553" lon="3.686062"><time>2026-05-02T22:22:10Z</time></trkpt>
<trkpt lat="50.453947" lon="3.685831"><time>2026-05-02T22:32:10Z</time></trkpt>
<trkpt lat="50.454287" lon="3.685516"><time>2026-05-02T22:42:10Z</time></trkpt>
<trkpt lat="50.454447" lon="3.685176"><time>2026-05-02T22:52:10Z</time></trkpt>
<trkpt lat="50.454614" lon="3.684652"><time>2026-05-02T23:02:10Z</time></trkpt>
<trkpt lat="50.454710" lon="3.684045"><time>2026-05-02T23:12:10Z</time></trkpt>
<trkpt lat="50.454661" lon="3.683455"><time>2026-05-02T23:22:10Z</time></trkpt>
<trkpt lat="50.454288" lon="3.681136"><time>2026-05-02T23:32:10Z</time></trkpt>
<trkpt lat="50.453855" lon="3.677791"><time>2026-05-02T23:42:10Z</time></trkpt>
<trkpt lat="50.453825" lon="3.675876"><time>2026-05-02T23:52:10Z</time></trkpt>
<trkpt lat="50.454018" lon="3.673494"><time>2026-05-03T00:02:10Z</time></trkpt>
<trkpt lat="50.454246" lon="3.672491"><time>2026-05-03T00:12:10Z</time></trkpt>
<trkpt lat="50.454587" lon="3.670951"><time>2026-05-03T00:22:10Z</time></trkpt>
<trkpt lat="50.455365" lon="3.668686"><time>2026-05-03T00:32:10Z</time></trkpt>
<trkpt lat="50.456007" lon="3.667958"><time>2026-05-03T00:42:10Z</time></trkpt>
<trkpt lat="50.457225" lon="3.667053"><time>2026-05-03T00:52:10Z</time></trkpt>
<trkpt lat="50.459177" lon="3.665714"><time>2026-05-03T01:02:10Z</time></trkpt>
<trkpt lat="50.460641" lon="3.664016"><time>2026-05-03T01:12:10Z</time></trkpt>
<trkpt lat="50.462147" lon="3.661910"><time>2026-05-03T01:22:10Z</time></trkpt>
<trkpt lat="50.462974" lon="3.660040"><time>2026-05-03T01:32:10Z</time></trkpt>
</trkseg></trk>
<trk>
<name>hhshsL78A</name>
<cmt>v</cmt>
<desc>Hensies Chemin n°L78A </desc>
<link href="https://chemins.be/hensies/chemin/L78A"/><trkseg>
<trkpt lat="50.462974" lon="3.660040"><time>2026-05-03T01:32:10Z</time></trkpt>
<trkpt lat="50.463053" lon="3.659804"><time>2026-05-03T01:42:10Z</time></trkpt>
</trkseg>
</trk>
</gpx>